Погода в Максатихе

Погода в Максатихе : погода сейчас, прогноз погоды и архив. Всё, что Вы хотите узнать о погоде в Максатихе!

Поиск расширенной информации на нашем сайте:

Другие новости

Новости СМИ2

Главная страница сайта

Новости сайта

03.07.2017

Напоминаем, что на нашем специализированном сайте Метеоцентр.Азия вы можете получить высокодетализированные автоматические прогнозы погоды по пунктам России, СНГ и мира в авиационном формате (включающие направление и скорость ветра, видимость, явления погоды, количество и форму облачности, нижнюю и верхнюю границу облачности).

Рекомендуем: Стирка пуховика и подушек в стиральной машине moyatehnika.ru.

Погода в Максатихе - сегодня

Время (UTC), дата Ветер
(°,м/с) 
Видим.   Явления Облачность Т
(°С)
Тd
(°С)
f(%) Тe
(°С)
Pmin
(гПа)
dP
(гПа)
Po
(мм)
O2
(г/м3)
Тmin Tmax R s Состояние
почвы
15 19.10.17 280 (З) 10 км    9/6 600 м средняя 
[Sc diur, vesp|Ac trans]
+4.8 +0.7 75 +6  1015.4  1.6  748  296      0.3     
18 19.10.17 270 (З) 10 км  {ливн. осадки}  3/3 200 м 
[St]
+2.8 +0.9 87 +4  1016.7  1.2  749  299    +7.3  0.3     
21 19.10.17 280 (З) 4000 м  дымка  9/9 1000 м 
[Sc]
+2.3 +1.4 94 +2  1017.9  1.1  750  299           
00 20.10.17 280 (З) 4000 м  дымка  9/9 300 м 
[Sc]
+2.4 +1.6 94 +2  1018.8  0.9  751  300           
03 20.10.17 280 (З) 4000 м  слаб. ливневой дождь  9/9 600 м кучево-дожд. 
[Cb cap]
+2.8 +2 94 +2  1019.8  1.1  752  299  +2.2    0.0     
06 20.10.17 290 (З) 4000 м  дымка{ливн. осадки}  9/3 300 м средняя 
[St|Ac trans]
+2.8 +2 94 +4  1021  1.1  752  300  +2.2    0.0    влажная 
09 20.10.17 290 (З) 10 км    9/9 300 м 
[Sc]
+4.5 +1.3 80 +4  1021.5  0.6  753  298           
12 20.10.17 260 (З) 10 км    9/8 600 м средняя 
[Sc|Ac trans]
+5.1 +0.2 71 +4  1020.9  -0.5  752  298           
15 20.10.17 270 (З) 10 км    9/8 600 м средняя 
[Sc|Ac trans]
+3.2 +0.8 84 +4  1021.1  0.1  752  300      0.0     
18 20.10.17 270 (З) 10 км  слаб. ливневой дождь  9/9 600 м кучево-дожд. 
[Cb cap]
+2.5 +0.6 87 +2  1021.1  -0.1  752  300    +5.5  0.0     
21 20.10.17 290 (З) 4000 м  слаб. ливневой дождь  9/9 600 м кучево-дожд. 
[Cb cap]
+1.9 +1.3 96 +1  1021.1  752  301           
00 21.10.17 330 (СЗ) 4000 м  слаб. ливневой дождь  9/8 600 м кучево-дожд., средняя 
[Cb cap|Ac trans]
+1.3 +0.7 96 +2  1021.1  0.1  752  302           
03 21.10.17 330 (СЗ) 4000 м  дымка{ливн. осадки}  3/0 средняя 
[Ac trans]
+0.2 -1.1 91 -1  1021.3  0.2  752  303  +0.2    0.3     
06 21.10.17 320 (СЗ) 4000 м  дымка{ливн. осадки}  9/9 600 м 
[Sc]
-0.6 -1.7 92 -1  1021.9  0.5  753  304  -0.8    0.3    влажная 
09 21.10.17 330 (СЗ) 10 км    9/9 600 м 
[Sc]
+0.6 -2.2 81 1022.1  0.3  753  303           
12 21.10.17 010 (С) 10 км  слаб. ливневой снег  8/8 600 м кучево-дожд. 
[Cb cap]
+1.2 -2.9 74 +1  1021.3  -0.8  752  302           
15 21.10.17 020 (С) 10 км  {ливн. осадки}  ясно 
-1.4 -3.7 84 -1  1021.5  752  305      0.0     
18 21.10.17 тихо ()   4000 м  дымка{ливн. осадки}  ясно 
-4.5 -5 96 -5  1021.5  -0.2  752  309    +1.8  0.0     
21 21.10.17 250 (З) 4000 м  дымка  ясно 
-5.9 -6.2 98 -6  1021.1  -0.5  752  310           
00 22.10.17 270 (З) 4000 м  дымка  ясно 
-4.7 -5.3 96 -6  1020.3  -0.7  752  309           
03 22.10.17 250 (З) 4000 м  дымка  1/0 средняя 
[Ac trans]
-4.8 -5.4 96 -6  1019.5  -0.8  751  309  -6.4         
06 22.10.17 250 (З) 10 км    9/9 1000 м 
[Sc]
-2.2 -3.3 92 -3  1018.2  -1  750  305  -6.4        замёрзшая 
09 22.10.17 250 (З) 10 км    9/9 1000 м 
[Sc]
+0.8 -1.6 84 -1  1017.3  -0.7  750  301           
12 22.10.17 250 (З) 4000 м  слаб. ливневой снег  9/9 600 м кучево-дожд. 
[Cb cap]
+1.3 -1.8 80 1016.4  -0.9  749  301           
15 22.10.17 250 (З) 10 км  {ливн. осадки}  9/9 600 м 
[Sc diur, vesp]
+0.6 -1.2 88 1015.9  -0.5  749  301      0.3     
Время (UTC), дата Ветер
(°,м/с) 
Видим.   Явления Облачность Т
(°С)
Тd
(°С)
f(%) Тe
(°С)
Pmin
(гПа)
dP
(гПа)
Po
(мм)
O2
(г/м3)
Тmin Tmax R s Состояние
почвы

Для получения пояснительной информации подведите курсор к названию столбца.

ПОГОДА в Максатихе - архив

Всё, что Вы хотите узнать о погоде в Максатихе - удобно и подробно!

Выберите нужную дату (начиная с 1 января 2015* года) и нажмите кнопку "Найти".
Будут отображены архивные сводки погоды по пункту Максатиха, начиная с указанной даты.


Отображать данные в формате CSV (для использования в таблицах Excel)


Внимание! Наш архив погоды предназначен исключительно для личного некоммерческого использования в познавательных целях. Если Вам необходимы официальные справки о состоянии погоды (для производственных, юридических, коммерческих и т.п. целей), обращайтесь в органы Росгидромета.

*Примечание: данная дата относится к архиву по метеостанциям СССР (Россия, СНГ, Балтия).
Архив по метеостанциям Зарубежной Европы и Азии (кроме Китая) хранится 10 дней, по другим регионам земного шара (Китай, Африка, Америка, Австралия, Океания) - 1 день.

Максатиха - район местоположения метеостанции


Название, широта, долгота, высота метеостанции:
Максатиха 57.8°ш. 35.9°д. 140 м над ур. моря [Российская Федерация]

Дополнительная информация

В oтличие oт бoльшинства пoгoдных сайтoв мы публикуем пoдрoбную метеoинфoрмацию в детальнoм прoфессиoнальнoм фoрмате.

Характеристики температуры и влажнoсти вoздуха измеряются на высoте 2 м в тени вдали oт зданий и деревьев.
Скoрoсть ветра измеряется на высoте 10 м (на урoвне рoста челoвека скoрoсть ветра ниже в 1.5-2 раза). Если метеoстанция нахoдится в гoрoде или в лесу, тo скoрoсть ветра занижена на 2-4 м/с пo сравнению с oткрытым местoм. Скoрoсть ветра над акватoриями крупных рек и oзёр, а также на вершинах хoлмoв на 2-5 м/с выше, чем в oбычных услoвиях.
Атмoсфернoе давление в разных тoчках местнoсти мoжет значительнo oтличаться oт давления на метеoстанции, в зависимoсти oт услoвий рельефа (при пoдъёме на 10 м давление пoнижается примернo на 1 мм рт.ст.).